| time (UTC) | temp F | wind direction | speed MPH | gust MPH | rain 1hr in | rain 24hr in | rain mn in | humidity % | barometer mb |
| 20260507080403 | 51 | 311 | 2.0 | 6.0 | 0.00 | 0.00 | 0.00 | 54 | 1016.1 |
| 20260507075403 | 50 | 282 | 2.0 | 7.0 | 0.00 | 0.00 | 0.00 | 55 | 1016.0 |
| 20260507074903 | 50 | 273 | 2.0 | 8.0 | 0.00 | 0.00 | 0.00 | 56 | 1016.0 |
| 20260507074403 | 50 | 266 | 2.0 | 7.0 | 0.00 | 0.00 | 0.00 | 58 | 1015.9 |
| 20260507073903 | 49 | 249 | 3.0 | 8.0 | 0.00 | 0.00 | 0.00 | 57 | 1015.9 |
| 20260507073404 | 49 | 264 | 3.0 | 8.0 | 0.00 | 0.00 | 0.00 | 58 | 1015.9 |
| 20260507072903 | 49 | 230 | 2.0 | 5.0 | 0.00 | 0.00 | 0.00 | 58 | 1015.9 |
| 20260507072403 | 48 | 249 | 3.0 | 6.0 | 0.00 | 0.00 | 0.00 | 61 | 1015.9 |
| 20260507071904 | 48 | 234 | 3.0 | 6.0 | 0.00 | 0.00 | 0.00 | 61 | 1015.9 |
| 20260507071404 | 47 | 264 | 3.0 | 5.0 | 0.00 | 0.00 | 0.00 | 61 | 1015.9 |
| 20260507070904 | 47 | 274 | 2.0 | 3.0 | 0.00 | 0.00 | 0.00 | 63 | 1015.8 |
| 20260507070403 | 47 | 219 | 4.0 | 8.0 | 0.00 | 0.00 | 0.00 | 62 | 1015.8 |
| 20260507065903 | 46 | 246 | 2.0 | 3.0 | 0.00 | 0.00 | 0.00 | 63 | 1015.9 |
| 20260507065403 | 46 | 275 | 3.0 | 6.0 | 0.00 | 0.00 | 0.00 | 64 | 1015.9 |
| 20260507064403 | 45 | 254 | 4.0 | 8.0 | 0.00 | 0.00 | 0.00 | 65 | 1015.8 |
| 20260507063903 | 45 | 246 | 3.0 | 7.0 | 0.00 | 0.00 | 0.00 | 68 | 1015.7 |
| 20260507063404 | 45 | 257 | 5.0 | 9.0 | 0.00 | 0.00 | 0.00 | 69 | 1015.8 |
| 20260507062904 | 45 | 248 | 3.0 | 6.0 | 0.00 | 0.00 | 0.00 | 70 | 1015.7 |
| 20260507061904 | 44 | 241 | 4.0 | 7.0 | 0.00 | 0.00 | 0.00 | 71 | 1015.7 |
| 20260507061403 | 43 | 250 | 5.0 | 7.0 | 0.00 | 0.00 | 0.00 | 72 | 1015.6 |
| 20260507060903 | 43 | 247 | 5.0 | 8.0 | 0.00 | 0.00 | 0.00 | 73 | 1015.6 |
| 20260507060403 | 42 | 239 | 5.0 | 9.0 | 0.00 | 0.00 | 0.00 | 74 | 1015.6 |
| 20260507055903 | 42 | 226 | 5.0 | 7.0 | 0.00 | 0.00 | 0.00 | 74 | 1015.6 |
| 20260507054903 | 41 | 234 | 5.0 | 7.0 | 0.00 | 0.00 | 0.00 | 75 | 1015.3 |
| 20260507054403 | 41 | 240 | 5.0 | 7.0 | 0.00 | 0.00 | 0.00 | 75 | 1015.3 |
| 20260507053903 | 40 | 234 | 5.0 | 8.0 | 0.00 | 0.00 | 0.00 | 76 | 1015.2 |
| 20260507053403 | 40 | 229 | 5.0 | 7.0 | 0.00 | 0.00 | 0.00 | 75 | 1015.1 |
| 20260507052903 | 40 | 228 | 5.0 | 7.0 | 0.00 | 0.00 | 0.00 | 76 | 1015.2 |
| 20260507052404 | 39 | 224 | 5.0 | 6.0 | 0.00 | 0.00 | 0.00 | 76 | 1015.2 |
| 20260507051904 | 39 | 231 | 5.0 | 7.0 | 0.00 | 0.00 | 0.00 | 77 | 1015.1 |
| 20260507050904 | 38 | 216 | 5.0 | 6.0 | 0.00 | 0.00 | 0.00 | 78 | 1015.0 |
| 20260507050403 | 38 | 214 | 3.0 | 5.0 | 0.00 | 0.00 | 0.00 | 79 | 1015.0 |
| 20260507045904 | 37 | 212 | 5.0 | 5.0 | 0.00 | 0.00 | 0.00 | 79 | 1014.9 |
| 20260507044903 | 37 | 202 | 3.0 | 3.0 | 0.00 | 0.00 | 0.00 | 79 | 1014.8 |
| 20260507044403 | 36 | 212 | 5.0 | 6.0 | 0.00 | 0.00 | 0.00 | 79 | 1014.8 |
| 20260507043904 | 36 | 198 | 2.0 | 3.0 | 0.00 | 0.00 | 0.00 | 79 | 1014.8 |
| 20260507042403 | 35 | 194 | 3.0 | 5.0 | 0.00 | 0.00 | 0.00 | 80 | 1014.8 |
| 20260507041903 | 35 | 197 | 3.0 | 5.0 | 0.00 | 0.00 | 0.00 | 80 | 1014.7 |
| 20260507041403 | 35 | 195 | 3.0 | 5.0 | 0.00 | 0.00 | 0.00 | 80 | 1014.7 |
| 20260507040403 | 34 | 200 | 3.0 | 5.0 | 0.00 | 0.00 | 0.00 | 80 | 1014.6 |
| 20260507035903 | 34 | 194 | 3.0 | 5.0 | 0.00 | 0.00 | 0.00 | 81 | 1014.6 |
| 20260507035404 | 34 | 191 | 3.0 | 5.0 | 0.00 | 0.00 | 0.00 | 81 | 1014.4 |
| 20260507034903 | 33 | 194 | 3.0 | 5.0 | 0.00 | 0.00 | 0.00 | 82 | 1014.4 |
| 20260507033403 | 32 | 183 | 1.0 | 3.0 | 0.00 | 0.00 | 0.00 | 82 | 1014.3 |
| 20260507032903 | 32 | 172 | 1.0 | 3.0 | 0.00 | 0.00 | 0.00 | 82 | 1014.2 |
| 20260507032403 | 32 | 175 | 1.0 | 2.0 | 0.00 | 0.00 | 0.00 | 82 | 1014.2 |
| 20260507031903 | 32 | 180 | 0.0 | 2.0 | 0.00 | 0.00 | 0.00 | 81 | 1014.3 |
| 20260507031403 | 32 | 180 | 1.0 | 2.0 | 0.00 | 0.00 | 0.00 | 81 | 1014.2 |
| 20260507030903 | 32 | 180 | 0.0 | 2.0 | 0.00 | 0.00 | 0.00 | 81 | 1014.1 |
| 20260507025905 | 32 | 180 | 0.0 | 0.0 | 0.00 | 0.00 | 0.00 | 80 | 1014.1 |
| 20260507024403 | 33 | 180 | 0.0 | 0.0 | 0.00 | 0.00 | 0.00 | 79 | 1014.0 |
| 20260507023904 | 33 | 180 | 1.0 | 2.0 | 0.00 | 0.00 | 0.00 | 79 | 1014.0 |
| 20260507023403 | 33 | 189 | 0.0 | 1.0 | 0.00 | 0.00 | 0.00 | 78 | 1014.0 |
| 20260507022904 | 34 | 189 | 0.0 | 1.0 | 0.00 | 0.00 | 0.00 | 78 | 1013.9 |
| 20260507022404 | 34 | 189 | 0.0 | 0.0 | 0.00 | 0.00 | 0.00 | 78 | 1013.9 |
| 20260507021904 | 34 | 189 | 0.0 | 1.0 | 0.00 | 0.00 | 0.00 | 78 | 1013.9 |
| 20260507021404 | 34 | 189 | 2.0 | 3.0 | 0.00 | 0.00 | 0.00 | 79 | 1013.9 |
| 20260507020903 | 34 | 204 | 2.0 | 5.0 | 0.00 | 0.00 | 0.00 | 79 | 1013.9 |
| 20260507020403 | 34 | 207 | 3.0 | 3.0 | 0.00 | 0.00 | 0.00 | 79 | 1013.9 |
| 20260507015404 | 34 | 198 | 3.0 | 5.0 | 0.00 | 0.00 | 0.00 | 80 | 1013.9 |
| 20260507014903 | 34 | 196 | 3.0 | 6.0 | 0.00 | 0.00 | 0.00 | 80 | 1013.8 |
| 20260507014403 | 34 | 202 | 4.0 | 5.0 | 0.00 | 0.00 | 0.00 | 82 | 1013.8 |
| 20260507013903 | 33 | 209 | 2.0 | 3.0 | 0.00 | 0.00 | 0.00 | 82 | 1013.7 |
| 20260507013403 | 33 | 218 | 2.0 | 3.0 | 0.00 | 0.00 | 0.00 | 81 | 1013.8 |
| 20260507012903 | 33 | 225 | 2.0 | 3.0 | 0.00 | 0.00 | 0.00 | 80 | 1013.7 |
| 20260507012404 | 33 | 219 | 2.0 | 3.0 | 0.00 | 0.00 | 0.00 | 80 | 1013.6 |
| 20260507011904 | 33 | 219 | 3.0 | 3.0 | 0.00 | 0.00 | 0.00 | 79 | 1013.6 |
| 20260507011403 | 34 | 222 | 2.0 | 3.0 | 0.00 | 0.00 | 0.00 | 78 | 1013.5 |
| 20260507010904 | 34 | 222 | 3.0 | 5.0 | 0.00 | 0.00 | 0.00 | 77 | 1013.5 |
| 20260507010404 | 35 | 221 | 3.0 | 5.0 | 0.00 | 0.00 | 0.00 | 77 | 1013.5 |
| 20260507005904 | 35 | 223 | 3.0 | 3.0 | 0.00 | 0.00 | 0.00 | 76 | 1013.3 |
| 20260507004903 | 35 | 218 | 3.0 | 3.0 | 0.00 | 0.00 | 0.00 | 76 | 1013.2 |
| 20260507004404 | 36 | 211 | 4.0 | 6.0 | 0.00 | 0.00 | 0.00 | 75 | 1013.1 |
| 20260507003903 | 36 | 217 | 3.0 | 3.0 | 0.00 | 0.00 | 0.00 | 75 | 1013.1 |
| 20260507003403 | 36 | 211 | 3.0 | 5.0 | 0.00 | 0.00 | 0.00 | 75 | 1013.2 |
| 20260507002403 | 36 | 201 | 3.0 | 3.0 | 0.00 | 0.00 | 0.00 | 76 | 1013.2 |
| 20260507001903 | 35 | 187 | 2.0 | 3.0 | 0.00 | 0.00 | 0.00 | 77 | 1013.2 |
| 20260507001404 | 34 | 120 | 1.0 | 2.0 | 0.00 | 0.00 | 0.00 | 77 | 1013.2 |
| 20260507000904 | 33 | 96 | 0.0 | 0.0 | 0.00 | 0.00 | 0.00 | 78 | 1013.1 |
| 20260507000405 | 33 | 96 | 0.0 | 1.0 | 0.00 | 0.00 | 0.00 | 77 | 1013.1 |
| 20260506235904 | 33 | 96 | 0.0 | 2.0 | 0.00 | 0.00 | 0.00 | 77 | 1013.0 |
| 20260506235403 | 32 | 96 | 1.0 | 2.0 | 0.00 | 0.00 | 0.00 | 77 | 1013.0 |
| 20260506234904 | 32 | 96 | 2.0 | 3.0 | 0.00 | 0.00 | 0.00 | 76 | 1012.9 |
| 20260506234403 | 32 | 75 | 1.0 | 2.0 | 0.00 | 0.00 | 0.00 | 76 | 1012.9 |
| 20260506233904 | 32 | 72 | 1.0 | 2.0 | 0.00 | 0.00 | 0.00 | 76 | 1012.8 |
| 20260506233403 | 32 | 56 | 0.0 | 0.0 | 0.00 | 0.00 | 0.00 | 76 | 1012.8 |
| 20260506232904 | 32 | 56 | 0.0 | 0.0 | 0.00 | 0.00 | 0.00 | 75 | 1012.8 |
| 20260506232404 | 32 | 56 | 0.0 | 0.0 | 0.00 | 0.00 | 0.00 | 75 | 1012.7 |
| 20260506231903 | 32 | 56 | 0.0 | 0.0 | 0.00 | 0.00 | 0.00 | 75 | 1012.7 |
| 20260506231404 | 32 | 56 | 0.0 | 0.0 | 0.00 | 0.00 | 0.00 | 75 | 1012.6 |
| 20260506230903 | 32 | 56 | 0.0 | 2.0 | 0.00 | 0.00 | 0.00 | 75 | 1012.5 |
| 20260506230403 | 32 | 56 | 0.0 | 2.0 | 0.00 | 0.00 | 0.00 | 75 | 1012.5 |
| 20260506225904 | 32 | 56 | 1.0 | 2.0 | 0.00 | 0.00 | 0.00 | 74 | 1012.6 |
| 20260506225403 | 32 | 56 | 1.0 | 3.0 | 0.00 | 0.00 | 0.00 | 73 | 1012.5 |
| 20260506224404 | 33 | 56 | 2.0 | 3.0 | 0.00 | 0.00 | 0.00 | 73 | 1012.4 |
| 20260506223903 | 33 | 70 | 2.0 | 3.0 | 0.00 | 0.00 | 0.00 | 72 | 1012.4 |
| 20260506223404 | 33 | 37 | 0.0 | 0.0 | 0.00 | 0.00 | 0.00 | 72 | 1012.4 |
| 20260506222904 | 34 | 37 | 0.0 | 2.0 | 0.00 | 0.00 | 0.00 | 73 | 1012.5 |
| 20260506222404 | 33 | 37 | 1.0 | 2.0 | 0.00 | 0.00 | 0.00 | 72 | 1012.4 |
| 20260506221904 | 34 | 37 | 0.0 | 0.0 | 0.00 | 0.00 | 0.00 | 71 | 1012.5 |
| 20260506221403 | 34 | 37 | 0.0 | 1.0 | 0.00 | 0.00 | 0.00 | 71 | 1012.4 |
| 20260506220904 | 34 | 37 | 1.0 | 2.0 | 0.00 | 0.00 | 0.00 | 71 | 1012.4 |
| 20260506215903 | 34 | 37 | 0.0 | 0.0 | 0.00 | 0.00 | 0.00 | 72 | 1012.4 |
| 20260506215404 | 35 | 37 | 0.0 | 0.0 | 0.00 | 0.00 | 0.00 | 72 | 1012.4 |
| 20260506214904 | 35 | 37 | 1.0 | 2.0 | 0.00 | 0.00 | 0.00 | 72 | 1012.3 |
| 20260506214403 | 34 | 37 | 1.0 | 2.0 | 0.00 | 0.00 | 0.00 | 71 | 1012.2 |
| 20260506213903 | 35 | 37 | 1.0 | 2.0 | 0.00 | 0.00 | 0.00 | 70 | 1012.2 |
| 20260506213403 | 35 | 37 | 0.0 | 2.0 | 0.00 | 0.00 | 0.00 | 71 | 1012.2 |
| 20260506212904 | 34 | 37 | 2.0 | 3.0 | 0.00 | 0.00 | 0.00 | 70 | 1012.2 |
| 20260506212403 | 35 | 37 | 1.0 | 2.0 | 0.00 | 0.00 | 0.00 | 69 | 1012.2 |
| 20260506211904 | 35 | 37 | 1.0 | 2.0 | 0.00 | 0.00 | 0.00 | 68 | 1012.2 |
| 20260506211404 | 36 | 257 | 1.0 | 2.0 | 0.00 | 0.00 | 0.00 | 68 | 1012.2 |
| 20260506210903 | 36 | 257 | 0.0 | 0.0 | 0.00 | 0.00 | 0.00 | 69 | 1012.2 |
| 20260506210404 | 36 | 257 | 0.0 | 0.0 | 0.00 | 0.00 | 0.00 | 69 | 1012.2 |
| 20260506205904 | 36 | 257 | 0.0 | 2.0 | 0.00 | 0.00 | 0.00 | 69 | 1012.2 |
| 20260506205404 | 36 | 257 | 0.0 | 3.0 | 0.00 | 0.00 | 0.00 | 68 | 1012.2 |
| 20260506204905 | 36 | 263 | 1.0 | 6.0 | 0.00 | 0.00 | 0.00 | 67 | 1012.2 |
| 20260506204404 | 37 | 60 | 0.0 | 0.0 | 0.00 | 0.00 | 0.00 | 66 | 1012.1 |
| 20260506203904 | 37 | 60 | 1.0 | 2.0 | 0.00 | 0.00 | 0.00 | 65 | 1012.1 |
| 20260506203404 | 37 | 60 | 1.0 | 2.0 | 0.00 | 0.00 | 0.00 | 63 | 1012.1 |
| 20260506202904 | 38 | 60 | 0.0 | 0.0 | 0.00 | 0.00 | 0.00 | 60 | 1012.0 |
| 20260506201903 | 39 | 60 | 0.0 | 0.0 | 0.00 | 0.00 | 0.00 | 58 | 1012.1 |
| 20260506201404 | 40 | 60 | 0.0 | 0.0 | 0.00 | 0.00 | 0.00 | 57 | 1012.1 |
| 20260506200904 | 41 | 60 | 0.0 | 0.0 | 0.00 | 0.00 | 0.00 | 57 | 1012.2 |
| 20260506195904 | 41 | 60 | 1.0 | 1.0 | 0.00 | 0.00 | 0.00 | 54 | 1012.2 |
| 20260506195403 | 41 | 60 | 1.0 | 2.0 | 0.00 | 0.00 | 0.00 | 54 | 1012.1 |
| 20260506194404 | 43 | 60 | 1.0 | 3.0 | 0.00 | 0.00 | 0.00 | 48 | 1012.1 |
| 20260506193904 | 45 | 55 | 1.0 | 2.0 | 0.00 | 0.00 | 0.00 | 47 | 1012.1 |
| 20260506193404 | 45 | 55 | 0.0 | 0.0 | 0.00 | 0.00 | 0.00 | 44 | 1012.1 |
| 20260506192904 | 46 | 55 | 0.0 | 0.0 | 0.00 | 0.00 | 0.00 | 43 | 1012.0 |
| 20260506192405 | 46 | 55 | 1.0 | 1.0 | 0.00 | 0.00 | 0.00 | 42 | 1012.0 |
| 20260506191404 | 47 | 56 | 2.0 | 3.0 | 0.00 | 0.00 | 0.00 | 40 | 1011.9 |
| 20260506190904 | 48 | 56 | 1.0 | 3.0 | 0.00 | 0.00 | 0.00 | 40 | 1011.9 |
| 20260506190404 | 48 | 56 | 2.0 | 3.0 | 0.00 | 0.00 | 0.00 | 39 | 1011.9 |
| 20260506185904 | 48 | 55 | 2.0 | 3.0 | 0.00 | 0.00 | 0.00 | 38 | 1011.8 |
| 20260506185404 | 48 | 50 | 1.0 | 3.0 | 0.00 | 0.00 | 0.00 | 38 | 1011.9 |
| 20260506184904 | 48 | 50 | 1.0 | 3.0 | 0.00 | 0.00 | 0.00 | 40 | 1011.9 |
| 20260506184404 | 49 | 50 | 3.0 | 3.0 | 0.00 | 0.00 | 0.00 | 39 | 1011.9 |
| 20260506183404 | 49 | 49 | 2.0 | 3.0 | 0.00 | 0.00 | 0.00 | 39 | 1011.8 |
| 20260506182902 | 50 | 55 | 2.0 | 3.0 | 0.00 | 0.00 | 0.00 | 39 | 1011.7 |
| 20260506182403 | 50 | 62 | 2.0 | 3.0 | 0.00 | 0.00 | 0.00 | 38 | 1011.6 |
| 20260506181403 | 51 | 58 | 3.0 | 5.0 | 0.00 | 0.00 | 0.00 | 35 | 1011.6 |
| 20260506180903 | 51 | 54 | 3.0 | 5.0 | 0.00 | 0.00 | 0.00 | 35 | 1011.5 |
| 20260506180403 | 51 | 59 | 2.0 | 5.0 | 0.00 | 0.00 | 0.00 | 35 | 1011.5 |
| 20260506175904 | 52 | 32 | 2.0 | 3.0 | 0.00 | 0.00 | 0.00 | 34 | 1011.5 |
| 20260506175403 | 52 | 13 | 2.0 | 3.0 | 0.00 | 0.00 | 0.00 | 33 | 1011.5 |
| 20260506174903 | 52 | 19 | 3.0 | 6.0 | 0.00 | 0.00 | 0.00 | 34 | 1011.4 |
| 20260506174402 | 52 | 23 | 2.0 | 5.0 | 0.00 | 0.00 | 0.00 | 36 | 1011.2 |
| 20260506173904 | 52 | 31 | 2.0 | 7.0 | 0.00 | 0.00 | 0.00 | 36 | 1011.3 |
| 20260506173403 | 52 | 39 | 3.0 | 6.0 | 0.00 | 0.00 | 0.00 | 35 | 1011.3 |
| 20260506171903 | 53 | 48 | 4.0 | 9.0 | 0.00 | 0.00 | 0.00 | 33 | 1011.3 |
| 20260506171403 | 53 | 40 | 4.0 | 10.0 | 0.00 | 0.00 | 0.00 | 34 | 1011.3 |
| 20260506170903 | 53 | 41 | 7.0 | 12.0 | 0.00 | 0.00 | 0.00 | 32 | 1011.2 |
| 20260506170403 | 54 | 47 | 7.0 | 12.0 | 0.00 | 0.00 | 0.00 | 32 | 1011.2 |
| 20260506165903 | 55 | 37 | 3.0 | 5.0 | 0.00 | 0.00 | 0.00 | 31 | 1011.2 |
| 20260506164904 | 55 | 10 | 4.0 | 7.0 | 0.00 | 0.00 | 0.00 | 32 | 1011.2 |
| 20260506164403 | 55 | 13 | 4.0 | 8.0 | 0.00 | 0.00 | 0.00 | 31 | 1011.2 |
| 20260506163903 | 55 | 19 | 2.0 | 8.0 | 0.00 | 0.00 | 0.00 | 33 | 1011.2 |
| 20260506163403 | 55 | 19 | 6.0 | 10.0 | 0.00 | 0.00 | 0.00 | 32 | 1011.2 |
| 20260506162904 | 55 | 4 | 4.0 | 7.0 | 0.00 | 0.00 | 0.00 | 31 | 1011.2 |
| 20260506162403 | 55 | 18 | 4.0 | 8.0 | 0.00 | 0.00 | 0.00 | 31 | 1011.3 |
| 20260506161903 | 56 | 2 | 5.0 | 12.0 | 0.00 | 0.00 | 0.00 | 32 | 1011.3 |
| 20260506161403 | 55 | 340 | 3.0 | 9.0 | 0.00 | 0.00 | 0.00 | 32 | 1011.3 |
| 20260506160902 | 55 | 353 | 3.0 | 10.0 | 0.00 | 0.00 | 0.00 | 33 | 1011.3 |
| 20260506160403 | 55 | 337 | 3.0 | 9.0 | 0.00 | 0.00 | 0.00 | 32 | 1011.3 |
| 20260506155903 | 55 | 351 | 5.0 | 10.0 | 0.00 | 0.00 | 0.00 | 32 | 1011.2 |
| 20260506154903 | 55 | 336 | 5.0 | 9.0 | 0.00 | 0.00 | 0.00 | 32 | 1011.3 |
| 20260506154402 | 55 | 350 | 4.0 | 10.0 | 0.00 | 0.00 | 0.00 | 33 | 1011.2 |
| 20260506153903 | 55 | 8 | 4.0 | 12.0 | 0.00 | 0.00 | 0.00 | 34 | 1011.2 |
| 20260506153403 | 55 | 2 | 6.0 | 14.0 | 0.00 | 0.00 | 0.00 | 33 | 1011.2 |
| 20260506152903 | 55 | 13 | 3.0 | 12.0 | 0.00 | 0.00 | 0.00 | 34 | 1011.2 |
| 20260506152403 | 54 | 9 | 5.0 | 10.0 | 0.00 | 0.00 | 0.00 | 33 | 1011.3 |
| 20260506151403 | 55 | 18 | 6.0 | 12.0 | 0.00 | 0.00 | 0.00 | 32 | 1011.4 |
| 20260506150903 | 55 | 354 | 6.0 | 14.0 | 0.00 | 0.00 | 0.00 | 34 | 1011.4 |
| 20260506150403 | 55 | 353 | 7.0 | 14.0 | 0.00 | 0.00 | 0.00 | 32 | 1011.5 |
| 20260506145903 | 55 | 356 | 6.0 | 15.0 | 0.00 | 0.00 | 0.00 | 33 | 1011.6 |
| 20260506145403 | 55 | 347 | 6.0 | 12.0 | 0.00 | 0.00 | 0.00 | 32 | 1011.6 |
| 20260506144903 | 55 | 357 | 5.0 | 10.0 | 0.00 | 0.00 | 0.00 | 35 | 1011.7 |
| 20260506144403 | 55 | 3 | 8.0 | 14.0 | 0.00 | 0.00 | 0.00 | 34 | 1011.7 |
| 20260506143903 | 55 | 7 | 7.0 | 12.0 | 0.00 | 0.00 | 0.00 | 30 | 1011.8 |
| 20260506143403 | 55 | 3 | 7.0 | 10.0 | 0.00 | 0.00 | 0.00 | 33 | 1011.7 |
| 20260506142402 | 55 | 343 | 6.0 | 13.0 | 0.00 | 0.00 | 0.00 | 33 | 1011.7 |
| 20260506141902 | 55 | 345 | 6.0 | 12.0 | 0.00 | 0.00 | 0.00 | 34 | 1011.6 |
| 20260506140904 | 55 | 351 | 7.0 | 14.0 | 0.00 | 0.00 | 0.00 | 30 | 1011.7 |
| 20260506135903 | 56 | 335 | 6.0 | 13.0 | 0.00 | 0.00 | 0.00 | 32 | 1011.8 |
| 20260506134903 | 56 | 359 | 5.0 | 15.0 | 0.00 | 0.00 | 0.00 | 35 | 1012.0 |
| 20260506132903 | 57 | 328 | 3.0 | 7.0 | 0.00 | 0.00 | 0.00 | 26 | 1011.9 |
| 20260506132403 | 58 | 277 | 2.0 | 8.0 | 0.00 | 0.00 | 0.00 | 27 | 1012.0 |
| 20260506131903 | 57 | 273 | 3.0 | 6.0 | 0.00 | 0.00 | 0.00 | 22 | 1012.1 |
| 20260506131403 | 57 | 176 | 3.0 | 6.0 | 0.00 | 0.00 | 0.00 | 22 | 1012.2 |
| 20260506130903 | 58 | 201 | 5.0 | 8.0 | 0.00 | 0.00 | 0.00 | 24 | 1012.4 |
| 20260506130403 | 57 | 262 | 3.0 | 6.0 | 0.00 | 0.00 | 0.00 | 26 | 1012.4 |
| 20260506125903 | 57 | 143 | 3.0 | 9.0 | 0.00 | 0.00 | 0.00 | 21 | 1012.5 |
| 20260506125403 | 58 | 196 | 7.0 | 12.0 | 0.00 | 0.00 | 0.00 | 21 | 1012.5 |
| 20260506124903 | 57 | 225 | 6.0 | 9.0 | 0.00 | 0.00 | 0.00 | 21 | 1012.4 |
| 20260506124404 | 58 | 227 | 7.0 | 12.0 | 0.00 | 0.00 | 0.00 | 21 | 1012.4 |
| 20260506123903 | 58 | 157 | 8.0 | 12.0 | 0.00 | 0.00 | 0.00 | 20 | 1012.4 |
| 20260506123403 | 58 | 176 | 9.0 | 14.0 | 0.00 | 0.00 | 0.00 | 20 | 1012.5 |
| 20260506122903 | 57 | 202 | 7.0 | 10.0 | 0.00 | 0.00 | 0.00 | 24 | 1012.6 |
| 20260506122403 | 56 | 64 | 1.0 | 6.0 | 0.00 | 0.00 | 0.00 | 29 | 1012.6 |
| 20260506120903 | 56 | 18 | 1.0 | 3.0 | 0.00 | 0.00 | 0.00 | 27 | 1012.8 |
| 20260506115903 | 56 | 116 | 4.0 | 10.0 | 0.00 | 0.00 | 0.00 | 23 | 1012.9 |
| 20260506115404 | 56 | 130 | 10.0 | 14.0 | 0.00 | 0.00 | 0.00 | 22 | 1012.8 |
| 20260506114903 | 56 | 137 | 7.0 | 13.0 | 0.00 | 0.00 | 0.00 | 23 | 1012.8 |
| 20260506114403 | 56 | 166 | 3.0 | 9.0 | 0.00 | 0.00 | 0.00 | 26 | 1012.8 |
| 20260506113903 | 56 | 131 | 6.0 | 12.0 | 0.00 | 0.00 | 0.00 | 23 | 1012.9 |
| 20260506113402 | 57 | 71 | 4.0 | 9.0 | 0.00 | 0.00 | 0.00 | 23 | 1012.8 |
| 20260506112902 | 57 | 158 | 7.0 | 13.0 | 0.00 | 0.00 | 0.00 | 24 | 1012.8 |
| 20260506112403 | 56 | 129 | 10.0 | 13.0 | 0.00 | 0.00 | 0.00 | 25 | 1012.7 |
| 20260506111904 | 55 | 50 | 9.0 | 12.0 | 0.00 | 0.00 | 0.00 | 27 | 1012.8 |
| 20260506111404 | 55 | 63 | 7.0 | 15.0 | 0.00 | 0.00 | 0.00 | 25 | 1012.9 |
| 20260506105904 | 55 | 60 | 6.0 | 8.0 | 0.00 | 0.00 | 0.00 | 26 | 1013.1 |
| 20260506105403 | 55 | 172 | 1.0 | 6.0 | 0.00 | 0.00 | 0.00 | 25 | 1013.0 |
| 20260506104904 | 56 | 181 | 6.0 | 12.0 | 0.00 | 0.00 | 0.00 | 24 | 1013.1 |
| 20260506104403 | 56 | 94 | 11.0 | 16.0 | 0.00 | 0.00 | 0.00 | 26 | 1013.2 |
| 20260506103403 | 54 | 62 | 5.0 | 12.0 | 0.00 | 0.00 | 0.00 | 25 | 1013.2 |
| 20260506102903 | 54 | 145 | 7.0 | 13.0 | 0.00 | 0.00 | 0.00 | 25 | 1013.2 |
| 20260506102404 | 55 | 134 | 3.0 | 13.0 | 0.00 | 0.00 | 0.00 | 27 | 1013.2 |
| 20260506101903 | 55 | 70 | 9.0 | 12.0 | 0.00 | 0.00 | 0.00 | 26 | 1013.3 |
| 20260506101403 | 55 | 103 | 6.0 | 9.0 | 0.00 | 0.00 | 0.00 | 25 | 1013.5 |
| 20260506100903 | 55 | 224 | 5.0 | 8.0 | 0.00 | 0.00 | 0.00 | 28 | 1013.4 |
| 20260506100403 | 55 | 87 | 7.0 | 10.0 | 0.00 | 0.00 | 0.00 | 26 | 1013.5 |
| 20260506095903 | 54 | 121 | 3.0 | 6.0 | 0.00 | 0.00 | 0.00 | 27 | 1013.5 |
| 20260506094403 | 54 | 167 | 7.0 | 13.0 | 0.00 | 0.00 | 0.00 | 26 | 1013.4 |
| 20260506093903 | 54 | 103 | 5.0 | 13.0 | 0.00 | 0.00 | 0.00 | 29 | 1013.4 |
| 20260506093403 | 53 | 82 | 8.0 | 12.0 | 0.00 | 0.00 | 0.00 | 27 | 1013.4 |
| 20260506092903 | 53 | 95 | 2.0 | 6.0 | 0.00 | 0.00 | 0.00 | 29 | 1013.4 |
| 20260506091904 | 53 | 119 | 6.0 | 9.0 | 0.00 | 0.00 | 0.00 | 27 | 1013.5 |
| 20260506091404 | 53 | 156 | 6.0 | 12.0 | 0.00 | 0.00 | 0.00 | 26 | 1013.4 |
| 20260506085903 | 53 | 172 | 7.0 | 12.0 | 0.00 | 0.00 | 0.00 | 25 | 1013.5 |
| 20260506085405 | 52 | 110 | 7.0 | 13.0 | 0.00 | 0.00 | 0.00 | 29 | 1013.5 |
| 20260506084903 | 52 | 126 | 5.0 | 9.0 | 0.00 | 0.00 | 0.00 | 29 | 1013.5 |
| 20260506084403 | 52 | 161 | 4.0 | 9.0 | 0.00 | 0.00 | 0.00 | 26 | 1013.6 |
| 20260506083403 | 52 | 173 | 9.0 | 18.0 | 0.00 | 0.00 | 0.00 | 31 | 1013.6 |
| 20260506082404 | 52 | 100 | 7.0 | 12.0 | 0.00 | 0.00 | 0.00 | 31 | 1013.7 |
| 20260506080903 | 51 | 164 | 7.0 | 13.0 | 0.00 | 0.00 | 0.00 | 32 | 1013.6 |